Погода в Баршатасе

Поиск расширенной информации на нашем сайте:

Полезная информация:

Новости сайта



02.01.2020
Опубликован Долгосрочный прогноз погоды по городам России и ближнего зарубежья на январь 2020 года.
Карты: Прогноз на январь и февраль 2020 года, Сравнение прогнозируемой аномалии приземной температуры воздуха на январь 2020 года по разным моделям.




Погода в Баршатасе - сегодня

Время (UTC), дата Ветер
(°,м/с) 
Видим.   Явления Облачность Т
(°С)
Тd
(°С)
f(%) Тe
(°С)
Pmin
(гПа)
dP
(гПа)
Po
(мм)
O2
(г/м3)
Тmin Tmax R s Состояние
почвы
12 22.10.21 240 (ЮЗ) 20000 м    9/9 600 м кучево-дожд. 
[Cb calv]
+2.6 -5.3 56 1031.7  1.8  715  286           
15 22.10.21 230 (ЮЗ) н/о    10/10 600 м кучево-дожд. 
[Cb calv]
+1.2 -2.5 76 -1  1034.5  2.2  716  288    +3.8       
18 22.10.21 200 (Ю) н/о    10/10 600 м кучево-дожд. 
[Cb calv]
-1.4 -3.2 88 -4  1036.5  1.2  717  291    +3.8       
21 22.10.21 190 (Ю) н/о    10/10 600 м кучево-дожд. 
[Cb calv]
-0.2 -2.5 84 -3  1036.3  0.1  717  290           
00 23.10.21 190 (Ю) н/о    10/10 600 м кучево-дожд. 
[Cb calv]
-0.7 -2.8 86 -4  1036.8  0.3  718  290           
03 23.10.21 200 (Ю) 20000 м    9/9 600 м кучево-дожд. 
[Cb calv]
+0.3 -1.7 86 -3  1037.2  0.7  718  289           
06 23.10.21 230 (ЮЗ) 10{15}  20000 м    9/9 600 м кучево-дожд. 
[Cb calv]
+4.5 -4.5 52 +1  1035.6  -0.4  718  285  -1.4         
09 23.10.21 220 (ЮЗ) 20000 м    9/9 600 м кучево-дожд. 
[Cb calv]
+5 -3.4 55 +2  1034.3  -1  717  284           
12 23.10.21 210 (ЮЗ) 20000 м    10/10 600 м кучево-дожд. 
[Cb calv]
+5 -2 61 +2  1034.4  0.1  717  284           
15 23.10.21 210 (ЮЗ) н/о    10/10 600 м кучево-дожд. 
[Cb calv]
+4.4 -2.8 59 +2  1035.7  718  285    +5.6       
18 23.10.21 180 (Ю) н/о    4/3 1000 м верхняя 
[Sc|Ci fib]
+1 -1.8 82 -1  1036.5  -0.2  718  288    +5.6       
21 23.10.21 160 (Ю) н/о    8/3 1000 м верхняя 
[Sc|Ci fib]
+0.2 -2.7 81 -2  1036.8  0.1  718  289           
00 24.10.21 140 (ЮВ) н/о    6/1 1000 м верхняя 
[Sc|Ci fib]
-2 -3.9 87 -4  1036.7  -0.7  717  292           
03 24.10.21 140 (ЮВ) 20000 м    6/3 600 м кучево-дожд., верхняя 
[Cb calv|Ci fib]
+0.3 -2.5 81 -1  1036.8  0.7  718  289           
06 24.10.21 180 (Ю) 20000 м    9/9 600 м кучево-дожд. 
[Cb calv]
+4.7 -2.1 61 +4  1034.3  -1.1  717  284  -2.1         
09 24.10.21 170 (Ю) 20000 м    8/8 600 м кучево-дожд. 
[Cb calv]
+8.3 -1.7 49 +8  1031.2  -1.9  716  280           
12 24.10.21 150 (ЮВ) 20000 м    ясно 
+6.4 -1.4 57 +6  1031.2  -0.5  715  282           
15 24.10.21 060 (СВ) н/о    ясно 
+2.2 -1.7 75 +2  1031.4  -0.9  715  286    +8.5       
18 24.10.21 030 (СВ) н/о    ясно 
+0.2 -2.7 81 -2  1030.4  -1.5  713  287    +8.5       
21 24.10.21 040 (СВ) н/о    ясно 
-0.8 -3.2 84 -3  1028.2  -2.3  712  288           
00 25.10.21 020 (С) н/о    ясно 
-1 -3.4 84 -4  1026.2  -1.9  710  288           
03 25.10.21 020 (С) 20000 м    ясно 
+1.2 -2.2 78 -1  1024.6  -0.9  710  285           
06 25.10.21 360 (С) 20000 м    ясно 
+10.8 -2.3 40 +12  1021  -0.8  709  275  -1.2         
09 25.10.21 320 (СЗ) 20000 м    ясно 
+15 -6.3 22 +15  1018  -1.8  708  271           
12 25.10.21 010 (С) 20000 м    1/0 верхняя 
[Ci fib]
+12 -1.8 38 +13  1018.3  -0.4  707  273           
Время (UTC), дата Ветер
(°,м/с) 
Видим.   Явления Облачность Т
(°С)
Тd
(°С)
f(%) Тe
(°С)
Pmin
(гПа)
dP
(гПа)
Po
(мм)
O2
(г/м3)
Тmin Tmax R s Состояние
почвы

Для получения пояснительной информации подведите курсор к названию столбца.

ПОГОДА в Баршатасе - архив

Всё, что Вы хотите узнать о погоде в Баршатасе - удобно и подробно!

Выберите нужную дату (начиная с 1 января 2019* года) и нажмите кнопку "Найти".
Будут отображены архивные сводки погоды по пункту Баршатас, начиная с указанной даты.


Отображать данные в формате CSV (для использования в таблицах Excel)


Внимание! Наш архив погоды предназначен исключительно для личного некоммерческого использования в познавательных целях. Если Вам необходимы официальные справки о состоянии погоды (для производственных, юридических, коммерческих и т.п. целей), обращайтесь в органы Росгидромета.

*Примечание: данная дата относится к архиву по метеостанциям СССР (Россия, СНГ, Балтия).
Архив по метеостанциям Зарубежной Европы и Азии (кроме Китая) хранится 10 дней, по другим регионам земного шара (Китай, Африка, Америка, Австралия, Океания) - 1 день.

Баршатас - район местоположения метеостанции


Название, широта, долгота, высота метеостанции:
Баршатас 48.1°ш. 78.4°д. 647 м над ур. моря [Казахстан]

Дополнительная информация

В oтличие oт бoльшинства пoгoдных сайтoв мы публикуем пoдрoбную метеoинфoрмацию в детальнoм прoфессиoнальнoм фoрмате.

Характеристики температуры и влажнoсти вoздуха измеряются на высoте 2 м в тени вдали oт зданий и деревьев.
Скoрoсть ветра измеряется на высoте 10 м (на урoвне рoста челoвека скoрoсть ветра ниже в 1.5-2 раза). Если метеoстанция нахoдится в гoрoде или в лесу, тo скoрoсть ветра занижена на 2-4 м/с пo сравнению с oткрытым местoм. Скoрoсть ветра над акватoриями крупных рек и oзёр, а также на вершинах хoлмoв на 2-5 м/с выше, чем в oбычных услoвиях.
Атмoсфернoе давление в разных тoчках местнoсти мoжет значительнo oтличаться oт давления на метеoстанции, в зависимoсти oт услoвий рельефа (при пoдъёме на 10 м давление пoнижается примернo на 1 мм рт.ст.).